Tracking 19484 objects as of 20-Jan-2019
HD Live streaming from Space Station
objects crossing your sky now

COSMOS 764

Track COSMOS 764 now!
10-day predictions
COSMOS 764 is classified as:


NORAD ID: 8288
Int'l Code: 1975-086D
Perigee: 1,485.1 km
Apogee: 1,533.5 km
Inclination: 74.0 °
Period: 116.0 minutes
Semi major axis: 7880 km
RCS: 0.7209 m2 (medium)
Launch date: September 17, 1975
Source: Commonwealth of Independent States (former USSR) (CIS)
Launch site: PLESETSK MISSILE AND SPACE COMPLEX (PKMTR)
aabbcc
Your satellite tracking list
Your tracking list is empty




NASA's NSSDC Master Catalog

Two Line Element Set (TLE):
1  8288U 75086D   19019.90402181 -.00000003  00000-0  90874-4 0  9993
2  8288  74.0098 282.0049 0030724 286.5882 146.0557 12.41051093963839
Source of the keplerian elements: AFSPC